Regional Weather Roundup
Issued by NWS

Home | Current Version | Previous Version | Text Only | Print | Product List | Glossary On
Versions: 1 2 3 4 5 6 7 8 9 10 11 12 13 14 15 16 17 18 19 20 21 22 23 24 25 26 27 28 29 30 31 32 33 34 35 36 37 38 39 40 41 42 43 44 45 46 47 48 49 50
000
ASUS44 KMEG 051322
RWRTN

TENNESSEE HOURLY STATE WEATHER ROUNDUP
NATIONAL WEATHER SERVICE MEMPHIS TN
800 AM CDT SUN JUL 05 2015

TNZ002-004-019-021-049-052-054-088>092-051400-
WEST TENNESSEE

CITY           SKY/WX    TMP DP  RH WIND       PRES   REMARKS
MEMPHIS INTL   PTSUNNY   73  69  87 SW5       30.08S
NWS MEMPHIS      N/A     72 N/A N/A MISG        N/A
JACKSON        MOSUNNY   73  70  90 CALM      30.09S
DYERSBURG        N/A    N/A N/A N/A MISG        N/A
PARIS          CLOUDY    72  68  88 SW5       30.10R
LEXINGTON      CLOUDY    72  70  94 CALM      30.09S
$$

TNZ008-025-027-028-033-062-065-066-051400-
NORTH MIDDLE TENNESSEE

CITY           SKY/WX    TMP DP  RH WIND       PRES   REMARKS
NASHVILLE      LGT RAIN  71  71 100 W6        30.09R FOG
CLARKSVILLE    CLOUDY    71  69  93 SW5       30.08R FOG
SMYRNA         CLOUDY    71  70  97 W5        30.10R FOG
COOKEVILLE     CLOUDY    70  70 100 NW3       30.08R
CROSSVILLE     CLOUDY    68  64  87 W6        30.10S
$$

TNZ061-075-076-078-094-096-097-051400-
SOUTH MIDDLE TENNESSEE

CITY           SKY/WX    TMP DP  RH WIND       PRES   REMARKS
FAYETTEVILLE   CLOUDY    66  64  94 W3        30.13R
TULLAHOMA      CLOUDY    66  66 100 W7        30.12R
WINCHESTER     CLOUDY    66  66 100 W6        30.12R
MCMINNVILLE    CLOUDY    68  68 100 CALM      30.10R
COLUMBIA       CLOUDY    72  72 100 NW3       30.09S
SHELBYVILLE    CLOUDY    72  70  94 W6          N/A
$$

TNZ017-018-042-046-047-051400-
NORTHEAST TENNESSEE

CITY           SKY/WX    TMP DP  RH WIND       PRES   REMARKS
TRI CITIES     CLOUDY    70  68  93 E5        30.11S FOG
ELIZABETHTON   MOSUNNY   68  66  94 E5        30.12S
$$

TNZ012-013-036-069-073-074-051400-
CENTRAL EAST TENNESSEE

CITY           SKY/WX    TMP DP  RH WIND       PRES   REMARKS
KNOXVILLE      LGT RAIN  69  67  93 S8        30.07S FOG
OAK RIDGE      CLOUDY    70  67  90 VRB7      30.07S
GATLINBURG     CLOUDY    68  66  94 NW3       30.07S
MORRISTOWN       N/A     72  70  94 CALM      30.10S
$$

TNZ083-085-099-051400-
SOUTHEAST TENNESSEE

CITY           SKY/WX    TMP DP  RH WIND       PRES   REMARKS
CHATTANOOGA    CLOUDY    71  66  84 S7        30.08S FOG
$$

SKY/WX REPORTED AS FAIR MEANS FEW OR NO CLOUDS BELOW
12 THOUSAND FEET.


USA.gov is the U.S. government's official web portal to all federal, state and local government web resources and services.